Regional Weather Roundup
Issued by NWS

Home | Current Version | Previous Version | Text Only | Print | Product List | Glossary On
Versions: 1 2 3 4 5 6 7 8 9 10 11 12 13 14 15 16 17 18 19 20 21 22 23 24 25 26 27 28 29 30 31 32 33 34 35 36 37 38 39 40 41 42 43 44 45 46 47 48 49 50
000
ASUS44 KOUN 011710
RWROK

WEATHER ROUNDUP FOR OKLAHOMA
NATIONAL WEATHER SERVICE NORMAN OK
1200 PM CDT WED JUL 01 2015

NOTE: "FAIR" INDICATES FEW OR NO CLOUDS BELOW 12,000 FEET WITH NO
      SIGNIFICANT WEATHER AND/OR OBSTRUCTIONS TO VISIBILITY.

OKZ001>007-009>012-014-015-017-011800-
NORTHWEST OKLAHOMA AND THE PANHANDLE

CITY           SKY/WX    TMP DP  RH WIND       PRES   REMARKS
GAGE           SUNNY     91  64  40 SW20      29.90F HX  92
GUYMON         SUNNY     93  52  24 N9        29.93S HX  90
ENID/WOODRING  MOSUNNY   95  66  38 S21G30    29.84F HX  98
$$

OKZ016-021>023-033>039-044-045-011800-
SOUTHWEST OKLAHOMA

CITY           SKY/WX    TMP DP  RH WIND       PRES   REMARKS
LAWTON/REGL    SUNNY     91  69  48 SW10G18   29.94F HX  96
LAWTON/FT SILL SUNNY     89  72  56 SW14G21   29.93F HX  97
FREDERICK      SUNNY     91  69  48 SW14G24   29.93F HX  96
CLINTON        SUNNY     92  66  42 SW20G28   29.95S HX  94
HOBART         SUNNY     91  67  44 SW17G24   29.94F HX  94
ALTUS AFB      SUNNY     92  69  47 SW15      29.94S HX  96
$$

OKZ018>020-024>031-011800-
CENTRAL OKLAHOMA

CITY           SKY/WX    TMP DP  RH WIND       PRES   REMARKS
OKLAHOMA CITY  MOSUNNY   90  71  53 SW15      29.93S HX  96
OKC/WILEY POST SUNNY     90  71  53 S14       29.92F HX  96
OKC/TINKER AFB SUNNY     88  71  56 S14G22    29.92  HX  94
STILLWATER     SUNNY     92  69  47 SW20G25   29.87F HX  97
GUTHRIE        SUNNY     93  67  42 SW14G25   29.88F HX  96
$$

OKZ008-013-054>072-011800-
NORTHEAST OKLAHOMA

CITY           SKY/WX    TMP DP  RH WIND       PRES   REMARKS
TULSA          PTSUNNY   91  72  53 S14G21    29.88F HX  98
TULSA/JONES    PTSUNNY   90  72  55 S9        29.89S HX  97
PONCA CITY     SUNNY     93  67  42 SW17G25   29.83F HX  96
BARTLESVILLE   MOSUNNY   89  75  63 S7        29.86F HX  99
MUSKOGEE       MOSUNNY   87  74  64 S12       29.94S HX  95
$$

OKZ032-040>043-046>053-073>077-011800-
SOUTH CENTRAL/SOUTHEAST OKLAHOMA

CITY           SKY/WX    TMP DP  RH WIND       PRES   REMARKS
ARDMORE/DWNTWN MOSUNNY   86  66  51 SW7       29.97F
MCALESTER      MOSUNNY   86  72  62 S13G20    29.97R HX  92
$$



USA.gov is the U.S. government's official web portal to all federal, state and local government web resources and services.